Reno, NV

1:42 AM PDT on July 27, 2017 (GMT -0700)
Reno-Tahoe International

Weather History for KRNO - March, 2013

Change the Weather History Date:

Sunday, March 31, 2013

  Actual Average Record
Temperature  
Mean Temperature 49 °F 48 °F  
Max Temperature 58 °F 60 °F 83 °F (1966)
Min Temperature 40 °F 35 °F 12 °F (1905)
Degree Days  
Heating Degree Days 16 17  
Month to date heating degree days 477 597  
Since 1 July heating degree days 3961 4236  
Cooling Degree Days 0 0  
Month to date cooling degree days 0 0  
Year to date cooling degree days 0 0  
Growing Degree Days 1 (Base 50)    
Moisture  
Dew Point 35 °F    
Average Humidity 58    
Maximum Humidity 83    
Minimum Humidity 33    
Precipitation  
Precipitation 0.16 in 0.02 in 1.03 in (1899)
Month to date precipitation 0.29 0.76  
Year to date precipitation 0.41 2.81  
Snow  
Snow 0.00 in 0.00 in 1.80 in (1980)
Month to date snowfall 0.1 2.0  
Since 1 July snowfall 9.4 21.0  
Snow Depth 0.00 in    
Sea Level Pressure  
Sea Level Pressure 29.94 in    
Wind  
Wind Speed 8 mph (NW)    
Max Wind Speed 23 mph    
Max Gust Speed 29 mph    
Visibility 10 miles    
Events Rain , Thunderstorm    
T = Trace of Precipitation, MM = Missing Value Source: NWS Daily Summary

Daily Weather History Graph

Daily Weather History Graph

Search for Another Location

Airport or City:

Trip Planner

Search our weather history database for the weather conditions in past years. The results will help you decide how hot, cold, wet, or windy it might be!

Date:

Astronomy

Mar. 31, 2013 Rise Set
Actual Time 6:44 AM PDT 7:22 PM PDT
Civil Twilight 6:17 AM PDT 7:49 PM PDT
Nautical Twilight 5:45 AM PDT 8:21 PM PDT
Astronomical Twilight 5:12 AM PDT 8:54 PM PDT
Moon No Moon Rise 9:38 AM PDT (3/31)
Length of Visible Light 13h 32m
Length of Day
12h 38m
Waning Gibbous, 76% of the Moon is Illuminated
Mar 31
Waning Gibbous
Apr 2
Last Quarter
Apr 10
New
Apr 18
First Quarter
Apr 25
Full

Hourly Weather History & Observations

Time (PDT) Temp. Windchill Dew Point Humidity Pressure Visibility Wind Dir Wind Speed Gust Speed Precip Events Conditions
12:55 AM 57.9 °F - 37.0 °F 46% 29.86 in 10.0 mi North 5.8 mph - N/A   Mostly Cloudy
1:55 AM 55.9 °F - 37.9 °F 51% 29.86 in 10.0 mi NNW 4.6 mph - N/A   Mostly Cloudy
2:55 AM 53.1 °F - 37.0 °F 55% 29.86 in 10.0 mi Calm Calm - N/A   Mostly Cloudy
3:55 AM 53.1 °F - 37.0 °F 55% 29.84 in 10.0 mi Calm Calm - N/A   Overcast
4:55 AM 53.1 °F - 39.0 °F 59% 29.86 in 10.0 mi WNW 12.7 mph 17.3 mph N/A   Mostly Cloudy
5:55 AM 50.0 °F - 35.1 °F 57% 29.88 in 10.0 mi WNW 15.0 mph 24.2 mph N/A   Mostly Cloudy
6:33 AM 48.2 °F - 37.4 °F 66% 30.03 in 10.0 mi WNW 17.3 mph 21.9 mph 0.00 in Rain , Thunderstorm Thunderstorms and Rain
6:55 AM 46.0 °F 39.0 °F 39.0 °F 76% 29.94 in 8.0 mi WNW 17.3 mph 23.0 mph 0.03 in Rain , Thunderstorm Light Thunderstorms and Rain
7:06 AM 46.4 °F 40.4 °F 39.2 °F 76% 30.04 in 10.0 mi WNW 13.8 mph 20.7 mph 0.00 in Rain Light Rain
7:55 AM 46.0 °F 44.8 °F 39.0 °F 76% 30.00 in 10.0 mi Variable 3.5 mph - 0.04 in Rain Light Rain
8:55 AM 45.0 °F 41.2 °F 39.9 °F 82% 30.02 in 10.0 mi ESE 6.9 mph - 0.05 in Rain Light Rain
9:55 AM 46.9 °F - 41.0 °F 80% 30.00 in 10.0 mi North 8.1 mph - 0.04 in Rain Light Rain
10:55 AM 48.9 °F - 39.0 °F 69% 29.99 in 10.0 mi North 5.8 mph - 0.00 in   Mostly Cloudy
11:55 AM 54.0 °F - 37.9 °F 55% 29.97 in 10.0 mi Variable 3.5 mph - N/A   Mostly Cloudy
12:55 PM 54.0 °F - 36.0 °F 51% 29.96 in 10.0 mi ENE 8.1 mph - N/A   Mostly Cloudy
1:55 PM 54.0 °F - 35.1 °F 49% 29.96 in 10.0 mi Variable 4.6 mph - N/A   Mostly Cloudy
2:55 PM 55.0 °F - 33.1 °F 43% 29.95 in 10.0 mi East 5.8 mph - N/A   Overcast
3:55 PM 57.0 °F - 28.9 °F 34% 29.93 in 10.0 mi WNW 9.2 mph - N/A   Overcast
4:55 PM 53.1 °F - 33.1 °F 47% 29.92 in 10.0 mi WNW 18.4 mph 27.6 mph N/A   Overcast
5:55 PM 53.1 °F - 32.0 °F 45% 29.92 in 10.0 mi WNW 11.5 mph - N/A   Overcast
6:55 PM 53.1 °F - 32.0 °F 45% 29.94 in 10.0 mi WNW 10.4 mph - N/A   Overcast
7:55 PM 51.1 °F - 32.0 °F 48% 29.94 in 10.0 mi WNW 11.5 mph - N/A   Overcast
8:55 PM 48.9 °F - 32.0 °F 52% 29.97 in 10.0 mi West 10.4 mph - N/A   Mostly Cloudy
9:55 PM 48.0 °F - 30.9 °F 52% 29.97 in 10.0 mi WNW 4.6 mph - N/A   Scattered Clouds
10:55 PM 46.0 °F 43.9 °F 30.9 °F 56% 29.98 in 10.0 mi NW 4.6 mph - N/A   Clear
11:55 PM 45.0 °F - 30.9 °F 58% 29.97 in 10.0 mi Calm Calm - N/A   Clear